Year,Month,Day,Hour,Minute,Value (Times are PST for temperature in C)
2014,08,23,00,00,16.60
2014,08,23,00,01,16.60
2014,08,23,00,02,16.50
2014,08,23,00,03,16.50
2014,08,23,00,04,16.40
2014,08,23,00,05,16.40
2014,08,23,00,06,16.40
2014,08,23,00,07,16.40
2014,08,23,00,08,16.40
2014,08,23,00,09,16.30
2014,08,23,00,10,16.30
2014,08,23,00,11,16.30
2014,08,23,00,12,16.30
2014,08,23,00,13,16.20
2014,08,23,00,14,16.20
2014,08,23,00,15,16.20
2014,08,23,00,16,16.20
2014,08,23,00,17,16.20
2014,08,23,00,18,16.10
2014,08,23,00,19,16.10
2014,08,23,00,20,16.10
2014,08,23,00,21,16.10
2014,08,23,00,22,16.10
2014,08,23,00,23,16.10
2014,08,23,00,24,16.10
2014,08,23,00,25,16.00
2014,08,23,00,26,16.00
2014,08,23,00,27,16.00
2014,08,23,00,28,16.00
2014,08,23,00,29,15.90
2014,08,23,00,30,15.90
2014,08,23,00,31,15.90
2014,08,23,00,32,15.80
2014,08,23,00,33,15.80
2014,08,23,00,34,15.80
2014,08,23,00,35,15.80
2014,08,23,00,36,15.70
2014,08,23,00,37,15.70
2014,08,23,00,38,15.70
2014,08,23,00,39,15.60
2014,08,23,00,40,15.60
2014,08,23,00,41,15.60
2014,08,23,00,42,15.60
2014,08,23,00,43,15.50
2014,08,23,00,44,15.50
2014,08,23,00,45,15.50
2014,08,23,00,46,15.50
2014,08,23,00,47,15.50
2014,08,23,00,48,15.50
2014,08,23,00,49,15.40
2014,08,23,00,50,15.40
2014,08,23,00,51,15.40
2014,08,23,00,52,15.40
2014,08,23,00,53,15.40
2014,08,23,00,54,15.40
2014,08,23,00,55,15.40
2014,08,23,00,56,15.40
2014,08,23,00,57,15.30
2014,08,23,00,58,15.30
2014,08,23,00,59,15.30
2014,08,23,01,00,15.30
2014,08,23,01,01,15.30
2014,08,23,01,02,15.30
2014,08,23,01,03,15.30
2014,08,23,01,04,15.30
2014,08,23,01,05,15.20
2014,08,23,01,06,15.20
2014,08,23,01,07,15.20
2014,08,23,01,08,15.20
2014,08,23,01,09,15.20
2014,08,23,01,10,15.20
2014,08,23,01,11,15.20
2014,08,23,01,12,15.10
2014,08,23,01,13,15.10
2014,08,23,01,14,15.10
2014,08,23,01,15,15.10
2014,08,23,01,16,15.00
2014,08,23,01,17,15.00
2014,08,23,01,18,15.00
2014,08,23,01,19,14.90
2014,08,23,01,20,14.90
2014,08,23,01,21,14.90
2014,08,23,01,22,14.90
2014,08,23,01,23,14.90
2014,08,23,01,24,14.90
2014,08,23,01,25,14.80
2014,08,23,01,26,14.80
2014,08,23,01,27,14.80
2014,08,23,01,28,14.80
2014,08,23,01,29,14.80
2014,08,23,01,30,14.80
2014,08,23,01,31,14.80
2014,08,23,01,32,14.80
2014,08,23,01,33,14.80
2014,08,23,01,34,14.80
2014,08,23,01,35,14.80
2014,08,23,01,36,14.80
2014,08,23,01,37,14.80
2014,08,23,01,38,14.80
2014,08,23,01,39,14.80
2014,08,23,01,40,14.80
2014,08,23,01,41,14.80
2014,08,23,01,42,14.80
2014,08,23,01,43,14.80
2014,08,23,01,44,14.70
2014,08,23,01,45,14.70
2014,08,23,01,46,14.70
2014,08,23,01,47,14.70
2014,08,23,01,48,14.70
2014,08,23,01,49,14.70
2014,08,23,01,50,14.60
2014,08,23,01,51,14.60
2014,08,23,01,52,14.60
2014,08,23,01,53,14.60
2014,08,23,01,54,14.50
2014,08,23,01,55,14.50
2014,08,23,01,56,14.50
2014,08,23,01,57,14.40
2014,08,23,01,58,14.40
2014,08,23,01,59,14.40
2014,08,23,02,00,14.40
2014,08,23,02,01,14.40
2014,08,23,02,02,14.30
2014,08,23,02,03,14.30
2014,08,23,02,04,14.30
2014,08,23,02,05,14.30
2014,08,23,02,06,14.30
2014,08,23,02,07,14.30
2014,08,23,02,08,14.20
2014,08,23,02,09,14.20
2014,08,23,02,10,14.20
2014,08,23,02,11,14.20
2014,08,23,02,12,14.20
2014,08,23,02,13,14.20
2014,08,23,02,14,14.20
2014,08,23,02,15,14.10
2014,08,23,02,16,14.10
2014,08,23,02,17,14.10
2014,08,23,02,18,14.10
2014,08,23,02,19,14.10
2014,08,23,02,20,14.10
2014,08,23,02,21,14.10
2014,08,23,02,22,14.00
2014,08,23,02,23,14.00
2014,08,23,02,24,14.10
2014,08,23,02,25,14.10
2014,08,23,02,26,14.10
2014,08,23,02,27,14.00
2014,08,23,02,28,14.00
2014,08,23,02,29,14.00
2014,08,23,02,30,14.00
2014,08,23,02,31,14.00
2014,08,23,02,32,14.00
2014,08,23,02,33,14.00
2014,08,23,02,34,14.00
2014,08,23,02,35,14.00
2014,08,23,02,36,14.00
2014,08,23,02,37,14.00
2014,08,23,02,38,14.00
2014,08,23,02,39,14.00
2014,08,23,02,40,14.00
2014,08,23,02,41,14.00
2014,08,23,02,42,14.00
2014,08,23,02,43,14.00
2014,08,23,02,44,14.10
2014,08,23,02,45,14.10
2014,08,23,02,46,14.10
2014,08,23,02,47,14.10
2014,08,23,02,48,14.10
2014,08,23,02,49,14.10
2014,08,23,02,50,14.10
2014,08,23,02,51,14.10
2014,08,23,02,52,14.10
2014,08,23,02,53,14.10
2014,08,23,02,54,14.10
2014,08,23,02,55,14.10
2014,08,23,02,56,14.00
2014,08,23,02,57,14.00
2014,08,23,02,58,14.00
2014,08,23,02,59,14.00
2014,08,23,03,00,14.00
2014,08,23,03,01,14.00
2014,08,23,03,02,13.90
2014,08,23,03,03,13.90
2014,08,23,03,04,13.90
2014,08,23,03,05,13.90
2014,08,23,03,06,13.90
2014,08,23,03,07,13.90
2014,08,23,03,08,13.80
2014,08,23,03,09,13.80
2014,08,23,03,10,13.80
2014,08,23,03,11,13.80
2014,08,23,03,12,13.80
2014,08,23,03,13,13.70
2014,08,23,03,14,13.70
2014,08,23,03,15,13.70
2014,08,23,03,16,13.70
2014,08,23,03,17,13.60
2014,08,23,03,18,13.60
2014,08,23,03,19,13.60
2014,08,23,03,20,13.60
2014,08,23,03,21,13.60
2014,08,23,03,22,13.50
2014,08,23,03,23,13.50
2014,08,23,03,24,13.50
2014,08,23,03,25,13.50
2014,08,23,03,26,13.50
2014,08,23,03,27,13.40
2014,08,23,03,28,13.40
2014,08,23,03,29,13.40
2014,08,23,03,30,13.40
2014,08,23,03,31,13.40
2014,08,23,03,32,13.40
2014,08,23,03,33,13.40
2014,08,23,03,34,13.40
2014,08,23,03,35,13.40
2014,08,23,03,36,13.30
2014,08,23,03,37,13.30
2014,08,23,03,38,13.30
2014,08,23,03,39,13.30
2014,08,23,03,40,13.30
2014,08,23,03,41,13.30
2014,08,23,03,42,13.30
2014,08,23,03,43,13.30
2014,08,23,03,44,13.30
2014,08,23,03,45,13.30
2014,08,23,03,46,13.30
2014,08,23,03,47,13.20
2014,08,23,03,48,13.20
2014,08,23,03,49,13.20
2014,08,23,03,50,13.20
2014,08,23,03,51,13.20
2014,08,23,03,52,13.20
2014,08,23,03,53,13.20
2014,08,23,03,54,13.20
2014,08,23,03,55,13.20
2014,08,23,03,56,13.20
2014,08,23,03,57,13.20
2014,08,23,03,58,13.20
2014,08,23,03,59,13.20
2014,08,23,04,00,13.20
2014,08,23,04,01,13.10
2014,08,23,04,02,13.10
2014,08,23,04,03,13.10
2014,08,23,04,04,13.10
2014,08,23,04,05,13.10
2014,08,23,04,06,13.10
2014,08,23,04,07,13.10
2014,08,23,04,08,13.10
2014,08,23,04,09,13.10
2014,08,23,04,10,13.10
2014,08,23,04,11,13.00
2014,08,23,04,12,13.00
2014,08,23,04,13,13.00
2014,08,23,04,14,13.00
2014,08,23,04,15,12.90
2014,08,23,04,16,12.90
2014,08,23,04,17,12.90
2014,08,23,04,18,12.90
2014,08,23,04,19,12.90
2014,08,23,04,20,12.80
2014,08,23,04,21,12.90
2014,08,23,04,22,12.80
2014,08,23,04,23,12.80
2014,08,23,04,24,12.80
2014,08,23,04,25,12.80
2014,08,23,04,26,12.80
2014,08,23,04,27,12.80
2014,08,23,04,28,12.80
2014,08,23,04,29,12.80
2014,08,23,04,30,12.80
2014,08,23,04,31,12.80
2014,08,23,04,32,12.70
2014,08,23,04,33,12.70
2014,08,23,04,34,12.70
2014,08,23,04,35,12.70
2014,08,23,04,36,12.70
2014,08,23,04,37,12.70
2014,08,23,04,38,12.60
2014,08,23,04,39,12.60
2014,08,23,04,40,12.60
2014,08,23,04,41,12.60
2014,08,23,04,42,12.60
2014,08,23,04,43,12.60
2014,08,23,04,44,12.70
2014,08,23,04,45,12.70
2014,08,23,04,46,12.70
2014,08,23,04,47,12.70
2014,08,23,04,48,12.70
2014,08,23,04,49,12.70
2014,08,23,04,50,12.60
2014,08,23,04,51,12.60
2014,08,23,04,52,12.60
2014,08,23,04,53,12.60
2014,08,23,04,54,12.60
2014,08,23,04,55,12.60
2014,08,23,04,56,12.50
2014,08,23,04,57,12.50
2014,08,23,04,58,12.50
2014,08,23,04,59,12.50
2014,08,23,05,00,12.50
2014,08,23,05,01,12.50
2014,08,23,05,02,12.50
2014,08,23,05,03,12.40
2014,08,23,05,04,12.40
2014,08,23,05,05,12.40
2014,08,23,05,06,12.40
2014,08,23,05,07,12.40
2014,08,23,05,08,12.40
2014,08,23,05,09,12.40
2014,08,23,05,10,12.40
2014,08,23,05,11,12.40
2014,08,23,05,12,12.40
2014,08,23,05,13,12.40
2014,08,23,05,14,12.40
2014,08,23,05,15,12.40
2014,08,23,05,16,12.30
2014,08,23,05,17,12.30
2014,08,23,05,18,12.30
2014,08,23,05,19,12.30
2014,08,23,05,20,12.30
2014,08,23,05,21,12.30
2014,08,23,05,22,12.30
2014,08,23,05,23,12.30
2014,08,23,05,24,12.20
2014,08,23,05,25,12.20
2014,08,23,05,26,12.20
2014,08,23,05,27,12.20
2014,08,23,05,28,12.20
2014,08,23,05,29,12.20
2014,08,23,05,30,12.20
2014,08,23,05,31,12.20
2014,08,23,05,32,12.20
2014,08,23,05,33,12.20
2014,08,23,05,34,12.20
2014,08,23,05,35,12.20
2014,08,23,05,36,12.20
2014,08,23,05,37,12.20
2014,08,23,05,38,12.20
2014,08,23,05,39,12.20
2014,08,23,05,40,12.20
2014,08,23,05,41,12.20
2014,08,23,05,42,12.20
2014,08,23,05,43,12.20
2014,08,23,05,44,12.20
2014,08,23,05,45,12.20
2014,08,23,05,46,12.20
2014,08,23,05,47,12.20
2014,08,23,05,48,12.20
2014,08,23,05,49,12.10
2014,08,23,05,50,12.10
2014,08,23,05,51,12.10
2014,08,23,05,52,12.10
2014,08,23,05,53,12.10
2014,08,23,05,54,12.10
2014,08,23,05,55,12.10
2014,08,23,05,56,12.10
2014,08,23,05,57,12.10
2014,08,23,05,58,12.10
2014,08,23,05,59,12.10
2014,08,23,06,00,12.10
2014,08,23,06,01,12.10
2014,08,23,06,02,12.10
2014,08,23,06,03,12.10
2014,08,23,06,04,12.10
2014,08,23,06,05,12.10
2014,08,23,06,06,12.10
2014,08,23,06,07,12.00
2014,08,23,06,08,12.00
2014,08,23,06,09,12.00
2014,08,23,06,10,11.90
2014,08,23,06,11,11.90
2014,08,23,06,12,11.90
2014,08,23,06,13,11.90
2014,08,23,06,14,11.90
2014,08,23,06,15,11.90
2014,08,23,06,16,11.90
2014,08,23,06,17,11.90
2014,08,23,06,18,11.90
2014,08,23,06,19,11.90
2014,08,23,06,20,11.90
2014,08,23,06,21,11.80
2014,08,23,06,22,11.80
2014,08,23,06,23,11.80
2014,08,23,06,24,11.80
2014,08,23,06,25,11.80
2014,08,23,06,26,11.80
2014,08,23,06,27,11.80
2014,08,23,06,28,11.80
2014,08,23,06,29,11.80
2014,08,23,06,30,11.80
2014,08,23,06,31,11.80
2014,08,23,06,32,11.80
2014,08,23,06,33,11.80
2014,08,23,06,34,11.80
2014,08,23,06,35,11.80
2014,08,23,06,36,11.80
2014,08,23,06,37,11.80
2014,08,23,06,38,11.70
2014,08,23,06,39,11.70
2014,08,23,06,40,11.70
2014,08,23,06,41,11.70
2014,08,23,06,42,11.70
2014,08,23,06,43,11.70
2014,08,23,06,44,11.70
2014,08,23,06,45,11.70
2014,08,23,06,46,11.70
2014,08,23,06,47,11.70
2014,08,23,06,48,11.70
2014,08,23,06,49,11.70
2014,08,23,06,50,11.70
2014,08,23,06,51,11.70
2014,08,23,06,52,11.70
2014,08,23,06,53,11.80
2014,08,23,06,54,11.80
2014,08,23,06,55,11.80
2014,08,23,06,56,11.80
2014,08,23,06,57,11.80
2014,08,23,06,58,11.80
2014,08,23,06,59,11.80
2014,08,23,07,00,11.80
2014,08,23,07,01,11.80
2014,08,23,07,02,11.80
2014,08,23,07,03,11.80
2014,08,23,07,04,11.80
2014,08,23,07,05,11.80
2014,08,23,07,06,11.80
2014,08,23,07,07,11.80
2014,08,23,07,08,11.80
2014,08,23,07,09,11.80
2014,08,23,07,10,11.80
2014,08,23,07,11,11.80
2014,08,23,07,12,11.80
2014,08,23,07,13,11.80
2014,08,23,07,14,11.80
2014,08,23,07,15,11.80
2014,08,23,07,16,11.80
2014,08,23,07,17,11.80
2014,08,23,07,18,11.80
2014,08,23,07,19,11.90
2014,08,23,07,20,11.90
2014,08,23,07,21,11.90
2014,08,23,07,22,11.90
2014,08,23,07,23,11.90
2014,08,23,07,24,11.90
2014,08,23,07,25,11.90
2014,08,23,07,26,11.90
2014,08,23,07,27,11.90
2014,08,23,07,28,11.90
2014,08,23,07,29,12.00
2014,08,23,07,30,12.00
2014,08,23,07,31,12.00
2014,08,23,07,32,12.10
2014,08,23,07,33,12.10
2014,08,23,07,34,12.10
2014,08,23,07,35,12.10
2014,08,23,07,36,12.10
2014,08,23,07,37,12.10
2014,08,23,07,38,12.10
2014,08,23,07,39,12.20
2014,08,23,07,40,12.20
2014,08,23,07,41,12.20
2014,08,23,07,42,12.20
2014,08,23,07,43,12.20
2014,08,23,07,44,12.20
2014,08,23,07,45,12.30
2014,08,23,07,46,12.30
2014,08,23,07,47,12.30
2014,08,23,07,48,12.30
2014,08,23,07,49,12.30
2014,08,23,07,50,12.40
2014,08,23,07,51,12.40
2014,08,23,07,52,12.40
2014,08,23,07,53,12.40
2014,08,23,07,54,12.40
2014,08,23,07,55,12.40
2014,08,23,07,56,12.50
2014,08,23,07,57,12.50
2014,08,23,07,58,12.50
2014,08,23,07,59,12.50
2014,08,23,08,00,12.60
2014,08,23,08,01,12.60
2014,08,23,08,02,12.60
2014,08,23,08,03,12.60
2014,08,23,08,04,12.70
2014,08,23,08,05,12.70
2014,08,23,08,06,12.70
2014,08,23,08,07,12.80
2014,08,23,08,08,12.80
2014,08,23,08,09,12.80
2014,08,23,08,10,12.90
2014,08,23,08,11,12.90
2014,08,23,08,12,12.90
2014,08,23,08,13,13.00
2014,08,23,08,14,13.00
2014,08,23,08,15,13.10
2014,08,23,08,16,13.10
2014,08,23,08,17,13.20
2014,08,23,08,18,13.20
2014,08,23,08,19,13.30
2014,08,23,08,20,13.40
2014,08,23,08,21,13.40
2014,08,23,08,22,13.50
2014,08,23,08,23,13.60
2014,08,23,08,24,13.70
2014,08,23,08,25,13.70
2014,08,23,08,26,13.80
2014,08,23,08,27,13.80
2014,08,23,08,28,13.90
2014,08,23,08,29,14.00
2014,08,23,08,30,14.10
2014,08,23,08,31,14.10
2014,08,23,08,32,14.20
2014,08,23,08,33,14.20
2014,08,23,08,34,14.30
2014,08,23,08,35,14.40
2014,08,23,08,36,14.50
2014,08,23,08,37,14.50
2014,08,23,08,38,14.60
2014,08,23,08,39,14.60
2014,08,23,08,40,14.70
2014,08,23,08,41,14.70
2014,08,23,08,42,14.80
2014,08,23,08,43,14.80
2014,08,23,08,44,14.90
2014,08,23,08,45,15.00
2014,08,23,08,46,15.00
2014,08,23,08,47,15.10
2014,08,23,08,48,15.20
2014,08,23,08,49,15.20
2014,08,23,08,50,15.30
2014,08,23,08,51,15.30
2014,08,23,08,52,15.40
2014,08,23,08,53,15.40
2014,08,23,08,54,15.40
2014,08,23,08,55,15.50
2014,08,23,08,56,15.50
2014,08,23,08,57,15.60
2014,08,23,08,58,15.60
2014,08,23,08,59,15.60
2014,08,23,09,00,15.60
2014,08,23,09,01,15.60
2014,08,23,09,02,15.60
2014,08,23,09,03,15.60
2014,08,23,09,04,15.50
2014,08,23,09,05,15.50
2014,08,23,09,06,15.50
2014,08,23,09,07,15.40
2014,08,23,09,08,15.50
2014,08,23,09,09,15.40
2014,08,23,09,10,15.40
2014,08,23,09,11,15.40
2014,08,23,09,12,15.30
2014,08,23,09,13,15.30
2014,08,23,09,14,15.30
2014,08,23,09,15,15.20
2014,08,23,09,16,15.20
2014,08,23,09,17,15.20
2014,08,23,09,18,15.20
2014,08,23,09,19,15.20
2014,08,23,09,20,15.20
2014,08,23,09,21,15.10
2014,08,23,09,22,15.10
2014,08,23,09,23,15.00
2014,08,23,09,24,15.00
2014,08,23,09,25,15.00
2014,08,23,09,26,14.90
2014,08,23,09,27,14.90
2014,08,23,09,28,15.00
2014,08,23,09,29,15.00
2014,08,23,09,30,14.90
2014,08,23,09,31,14.90
2014,08,23,09,32,14.90
2014,08,23,09,33,14.90
2014,08,23,09,34,14.90
2014,08,23,09,35,14.90
2014,08,23,09,36,14.90
2014,08,23,09,37,14.90
2014,08,23,09,38,14.90
2014,08,23,09,39,14.90
2014,08,23,09,40,14.90
2014,08,23,09,41,14.80
2014,08,23,09,42,14.90
2014,08,23,09,43,14.90
2014,08,23,09,44,14.80
2014,08,23,09,45,14.80
2014,08,23,09,46,14.70
2014,08,23,09,47,14.70
2014,08,23,09,48,14.60
2014,08,23,09,49,14.50
2014,08,23,09,50,14.40
2014,08,23,09,51,14.30
2014,08,23,09,52,14.30
2014,08,23,09,53,14.30
2014,08,23,09,54,14.40
2014,08,23,09,55,14.40
2014,08,23,09,56,14.40
2014,08,23,09,57,14.40
2014,08,23,09,58,14.50
2014,08,23,09,59,14.50
2014,08,23,10,00,14.50
2014,08,23,10,01,14.50
2014,08,23,10,02,14.60
2014,08,23,10,03,14.50
2014,08,23,10,04,14.50
2014,08,23,10,05,14.50
2014,08,23,10,06,14.50
2014,08,23,10,07,14.50
2014,08,23,10,08,14.60
2014,08,23,10,09,14.60
2014,08,23,10,10,14.60
2014,08,23,10,11,14.70
2014,08,23,10,12,14.70
2014,08,23,10,13,14.70
2014,08,23,10,14,14.70
2014,08,23,10,15,14.70
2014,08,23,10,16,14.80
2014,08,23,10,17,14.80
2014,08,23,10,18,14.90
2014,08,23,10,19,14.90
2014,08,23,10,20,14.90
2014,08,23,10,21,14.90
2014,08,23,10,22,15.00
2014,08,23,10,23,15.10
2014,08,23,10,24,15.20
2014,08,23,10,25,15.20
2014,08,23,10,26,15.30
2014,08,23,10,27,15.50
2014,08,23,10,28,15.60
2014,08,23,10,29,15.70
2014,08,23,10,30,15.90
2014,08,23,10,31,16.00
2014,08,23,10,32,16.20
2014,08,23,10,33,16.30
2014,08,23,10,34,16.40
2014,08,23,10,35,16.60
2014,08,23,10,36,16.70
2014,08,23,10,37,16.80
2014,08,23,10,38,17.00
2014,08,23,10,39,17.10
2014,08,23,10,40,17.20
2014,08,23,10,41,17.30
2014,08,23,10,42,17.50
2014,08,23,10,43,17.60
2014,08,23,10,44,17.70
2014,08,23,10,45,17.70
2014,08,23,10,46,17.80
2014,08,23,10,47,17.80
2014,08,23,10,48,17.90
2014,08,23,10,49,17.90
2014,08,23,10,50,18.00
2014,08,23,10,51,18.10
2014,08,23,10,52,18.10
2014,08,23,10,53,18.10
2014,08,23,10,54,18.10
2014,08,23,10,55,18.20
2014,08,23,10,56,18.20
2014,08,23,10,57,18.30
2014,08,23,10,58,18.30
2014,08,23,10,59,18.40
2014,08,23,11,00,18.50
2014,08,23,11,01,18.60
2014,08,23,11,02,18.70
2014,08,23,11,03,18.80
2014,08,23,11,04,18.80
2014,08,23,11,05,18.90
2014,08,23,11,06,18.90
2014,08,23,11,07,19.00
2014,08,23,11,08,19.10
2014,08,23,11,09,19.10
2014,08,23,11,10,19.10
2014,08,23,11,11,19.10
2014,08,23,11,12,19.10
2014,08,23,11,13,19.10
2014,08,23,11,14,19.10
2014,08,23,11,15,19.10
2014,08,23,11,16,19.10
2014,08,23,11,17,19.10
2014,08,23,11,18,19.10
2014,08,23,11,19,19.10
2014,08,23,11,20,19.10
2014,08,23,11,21,19.20
2014,08,23,11,22,19.20
2014,08,23,11,23,19.20
2014,08,23,11,24,19.20
2014,08,23,11,25,19.30
2014,08,23,11,26,19.30
2014,08,23,11,27,19.30
2014,08,23,11,28,19.30
2014,08,23,11,29,19.30
2014,08,23,11,30,19.30
2014,08,23,11,31,19.40
2014,08,23,11,32,19.40
2014,08,23,11,33,19.50
2014,08,23,11,34,19.60
2014,08,23,11,35,19.60
2014,08,23,11,36,19.70
2014,08,23,11,37,19.80
2014,08,23,11,38,19.90
2014,08,23,11,39,20.10
2014,08,23,11,40,20.20
2014,08,23,11,41,20.30
2014,08,23,11,42,20.40
2014,08,23,11,43,20.40
2014,08,23,11,44,20.50
2014,08,23,11,45,20.60
2014,08,23,11,46,20.60
2014,08,23,11,47,20.70
2014,08,23,11,48,20.70
2014,08,23,11,49,20.60
2014,08,23,11,50,20.50
2014,08,23,11,51,20.40
2014,08,23,11,52,20.30
2014,08,23,11,53,20.20
2014,08,23,11,54,20.00
2014,08,23,11,55,19.80
2014,08,23,11,56,19.60
2014,08,23,11,57,19.40
2014,08,23,11,58,19.20
2014,08,23,11,59,19.10
2014,08,23,12,00,18.90
2014,08,23,12,01,18.70
2014,08,23,12,02,18.60
2014,08,23,12,03,18.50
2014,08,23,12,04,18.40
2014,08,23,12,05,18.30
2014,08,23,12,06,18.30
2014,08,23,12,07,18.20
2014,08,23,12,08,18.10
2014,08,23,12,09,18.10
2014,08,23,12,10,18.10
2014,08,23,12,11,18.10
2014,08,23,12,12,18.10
2014,08,23,12,13,18.10
2014,08,23,12,14,18.10
2014,08,23,12,15,18.00
2014,08,23,12,16,18.00
2014,08,23,12,17,17.80
2014,08,23,12,18,17.80
2014,08,23,12,19,17.70
2014,08,23,12,20,17.60
2014,08,23,12,21,17.50
2014,08,23,12,22,17.40
2014,08,23,12,23,17.40
2014,08,23,12,24,17.40
2014,08,23,12,25,17.30
2014,08,23,12,26,17.30
2014,08,23,12,27,17.20
2014,08,23,12,28,17.20
2014,08,23,12,29,17.10
2014,08,23,12,30,17.10
2014,08,23,12,31,17.10
2014,08,23,12,32,17.10
2014,08,23,12,33,17.10
2014,08,23,12,34,17.10
2014,08,23,12,35,17.10
2014,08,23,12,36,17.10
2014,08,23,12,37,17.10
2014,08,23,12,38,17.10
2014,08,23,12,39,17.20
2014,08,23,12,40,17.20
2014,08,23,12,41,17.20
2014,08,23,12,42,17.20
2014,08,23,12,43,17.30
2014,08,23,12,44,17.30
2014,08,23,12,45,17.40
2014,08,23,12,46,17.50
2014,08,23,12,47,17.50
2014,08,23,12,48,17.50
2014,08,23,12,49,17.50
2014,08,23,12,50,17.50
2014,08,23,12,51,17.60
2014,08,23,12,52,17.60
2014,08,23,12,53,17.60
2014,08,23,12,54,17.70
2014,08,23,12,55,17.80
2014,08,23,12,56,17.80
2014,08,23,12,57,17.90
2014,08,23,12,58,17.90
2014,08,23,12,59,17.90
2014,08,23,13,00,17.90
2014,08,23,13,01,17.90
2014,08,23,13,02,17.90
2014,08,23,13,03,17.90
2014,08,23,13,04,17.80
2014,08,23,13,05,17.80
2014,08,23,13,06,17.80
2014,08,23,13,07,17.70
2014,08,23,13,08,17.70
2014,08,23,13,09,17.70
2014,08,23,13,10,17.70
2014,08,23,13,11,17.70
2014,08,23,13,12,17.70
2014,08,23,13,13,17.70
2014,08,23,13,14,17.70
2014,08,23,13,15,17.70
2014,08,23,13,16,17.70
2014,08,23,13,17,17.80
2014,08,23,13,18,17.80
2014,08,23,13,19,17.80
2014,08,23,13,20,17.80
2014,08,23,13,21,17.80
2014,08,23,13,22,17.80
2014,08,23,13,23,17.70
2014,08,23,13,24,17.70
2014,08,23,13,25,17.70
2014,08,23,13,26,17.80
2014,08,23,13,27,17.80
2014,08,23,13,28,17.80
2014,08,23,13,29,17.80
2014,08,23,13,30,17.90
2014,08,23,13,31,18.00
2014,08,23,13,32,18.00
2014,08,23,13,33,18.10
2014,08,23,13,34,18.10
2014,08,23,13,35,18.10
2014,08,23,13,36,18.10
2014,08,23,13,37,18.20
2014,08,23,13,38,18.30
2014,08,23,13,39,18.30
2014,08,23,13,40,18.40
2014,08,23,13,41,18.40
2014,08,23,13,42,18.40
2014,08,23,13,43,18.40
2014,08,23,13,44,18.40
2014,08,23,13,45,18.50
2014,08,23,13,46,18.60
2014,08,23,13,47,18.70
2014,08,23,13,48,18.70
2014,08,23,13,49,18.80
2014,08,23,13,50,18.90
2014,08,23,13,51,19.00
2014,08,23,13,52,19.00
2014,08,23,13,53,19.10
2014,08,23,13,54,19.20
2014,08,23,13,55,19.30
2014,08,23,13,56,19.30
2014,08,23,13,57,19.40
2014,08,23,13,58,19.40
2014,08,23,13,59,19.50
2014,08,23,14,00,19.50
2014,08,23,14,01,19.70
2014,08,23,14,02,19.80
2014,08,23,14,03,19.80
2014,08,23,14,04,19.90
2014,08,23,14,05,20.00
2014,08,23,14,06,20.00
2014,08,23,14,07,20.10
2014,08,23,14,08,20.10
2014,08,23,14,09,20.20
2014,08,23,14,10,20.20
2014,08,23,14,11,20.20
2014,08,23,14,12,20.30
2014,08,23,14,13,20.30
2014,08,23,14,14,20.30
2014,08,23,14,15,20.30
2014,08,23,14,16,20.30
2014,08,23,14,17,20.30
2014,08,23,14,18,20.40
2014,08,23,14,19,20.40
2014,08,23,14,20,20.40
2014,08,23,14,21,20.40
2014,08,23,14,22,20.40
2014,08,23,14,23,20.40
2014,08,23,14,24,20.40
2014,08,23,14,25,20.40
2014,08,23,14,26,20.50
2014,08,23,14,27,20.50
2014,08,23,14,28,20.60
2014,08,23,14,29,20.80
2014,08,23,14,30,20.80
2014,08,23,14,31,20.80
2014,08,23,14,32,20.80
2014,08,23,14,33,20.80
2014,08,23,14,34,20.80
2014,08,23,14,35,20.90
2014,08,23,14,36,20.90
2014,08,23,14,37,20.90
2014,08,23,14,38,20.90
2014,08,23,14,39,20.90
2014,08,23,14,40,20.80
2014,08,23,14,41,20.80
2014,08,23,14,42,20.80
2014,08,23,14,43,20.80
2014,08,23,14,44,20.90
2014,08,23,14,45,21.00
2014,08,23,14,46,21.10
2014,08,23,14,47,21.10
2014,08,23,14,48,21.10
2014,08,23,14,49,21.10
2014,08,23,14,50,21.10
2014,08,23,14,51,21.00
2014,08,23,14,52,21.00
2014,08,23,14,53,20.90
2014,08,23,14,54,21.00
2014,08,23,14,55,21.10
2014,08,23,14,56,21.10
2014,08,23,14,57,21.20
2014,08,23,14,58,21.20
2014,08,23,14,59,21.20
2014,08,23,15,00,21.20
2014,08,23,15,01,21.20
2014,08,23,15,02,21.20
2014,08,23,15,03,21.30
2014,08,23,15,04,21.30
2014,08,23,15,05,21.30
2014,08,23,15,06,21.40
2014,08,23,15,07,21.40
2014,08,23,15,08,21.50
2014,08,23,15,09,21.50
2014,08,23,15,10,21.60
2014,08,23,15,11,21.70
2014,08,23,15,12,21.70
2014,08,23,15,13,21.80
2014,08,23,15,14,21.80
2014,08,23,15,15,21.90
2014,08,23,15,16,22.00
2014,08,23,15,17,22.10
2014,08,23,15,18,22.20
2014,08,23,15,19,22.30
2014,08,23,15,20,22.40
2014,08,23,15,21,22.50
2014,08,23,15,22,22.50
2014,08,23,15,23,22.60
2014,08,23,15,24,22.70
2014,08,23,15,25,22.80
2014,08,23,15,26,22.90
2014,08,23,15,27,23.00
2014,08,23,15,28,23.10
2014,08,23,15,29,23.20
2014,08,23,15,30,23.20
2014,08,23,15,31,23.30
2014,08,23,15,32,23.30
2014,08,23,15,33,23.30
2014,08,23,15,34,23.30
2014,08,23,15,35,23.40
2014,08,23,15,36,23.40
2014,08,23,15,37,23.50
2014,08,23,15,38,23.60
2014,08,23,15,39,23.70
2014,08,23,15,40,23.80
2014,08,23,15,41,23.80
2014,08,23,15,42,23.80
2014,08,23,15,43,23.80
2014,08,23,15,44,23.70
2014,08,23,15,45,23.60
2014,08,23,15,46,23.50
2014,08,23,15,47,23.50
2014,08,23,15,48,23.40
2014,08,23,15,49,23.30
2014,08,23,15,50,23.20
2014,08,23,15,51,23.10
2014,08,23,15,52,23.00
2014,08,23,15,53,23.00
2014,08,23,15,54,22.90
2014,08,23,15,55,22.80
2014,08,23,15,56,22.80
2014,08,23,15,57,22.70
2014,08,23,15,58,22.70
2014,08,23,15,59,22.70
2014,08,23,16,00,22.80
2014,08,23,16,01,22.80
2014,08,23,16,02,22.80
2014,08,23,16,03,22.80
2014,08,23,16,04,22.90
2014,08,23,16,05,22.90
2014,08,23,16,06,22.90
2014,08,23,16,07,22.80
2014,08,23,16,08,22.80
2014,08,23,16,09,22.80
2014,08,23,16,10,22.80
2014,08,23,16,11,22.80
2014,08,23,16,12,22.80
2014,08,23,16,13,22.70
2014,08,23,16,14,22.60
2014,08,23,16,15,22.60
2014,08,23,16,16,22.60
2014,08,23,16,17,22.60
2014,08,23,16,18,22.60
2014,08,23,16,19,22.60
2014,08,23,16,20,22.60
2014,08,23,16,21,22.60
2014,08,23,16,22,22.70
2014,08,23,16,23,22.80
2014,08,23,16,24,22.80
2014,08,23,16,25,22.80
2014,08,23,16,26,22.70
2014,08,23,16,27,22.70
2014,08,23,16,28,22.60
2014,08,23,16,29,22.60
2014,08,23,16,30,22.70
2014,08,23,16,31,22.70
2014,08,23,16,32,22.70
2014,08,23,16,33,22.80
2014,08,23,16,34,22.80
2014,08,23,16,35,22.80
2014,08,23,16,36,22.80
2014,08,23,16,37,22.80
2014,08,23,16,38,22.80
2014,08,23,16,39,22.80
2014,08,23,16,40,22.80
2014,08,23,16,41,22.90
2014,08,23,16,42,22.90
2014,08,23,16,43,22.90
2014,08,23,16,44,22.90
2014,08,23,16,45,23.00
2014,08,23,16,46,23.00
2014,08,23,16,47,23.10
2014,08,23,16,48,23.10
2014,08,23,16,49,23.10
2014,08,23,16,50,23.10
2014,08,23,16,51,23.20
2014,08,23,16,52,23.20
2014,08,23,16,53,23.20
2014,08,23,16,54,23.20
2014,08,23,16,55,23.20
2014,08,23,16,56,23.30
2014,08,23,16,57,23.30
2014,08,23,16,58,23.30
2014,08,23,16,59,23.30
2014,08,23,17,00,23.40
2014,08,23,17,01,23.40
2014,08,23,17,02,23.50
2014,08,23,17,03,23.40
2014,08,23,17,04,23.50
2014,08,23,17,05,23.50
2014,08,23,17,06,23.50
2014,08,23,17,07,23.50
2014,08,23,17,08,23.50
2014,08,23,17,09,23.40
2014,08,23,17,10,23.40
2014,08,23,17,11,23.50
2014,08,23,17,12,23.50
2014,08,23,17,13,23.50
2014,08,23,17,14,23.50
2014,08,23,17,15,23.50
2014,08,23,17,16,23.40
2014,08,23,17,17,23.40
2014,08,23,17,18,23.40
2014,08,23,17,19,23.50